NUSAT-10 (CAROLINE)

Last updated on Wed Oct 25 2023 00:02:25 GMT+0000 (Coordinated Universal Time)

1 46832U 20079F 23297.58059850 .03289947 23018-5 10056-2 0 9999 2 46832 97.1204 13.8592 0009442 272.5521 87.4691 16.26728051166881

Satellite not in orbit